Time+07,TemperatureF,Dew PointF,Humidity,Sea Level PressureIn,VisibilityMPH,Wind Direction,Wind SpeedMPH,Gust SpeedMPH,PrecipitationIn,Events,Conditions,WindDirDegrees,DateUTC
12:00 AM,80.6,69.8,70,29.86,5.6,ENE,4.6,-,N/A,,Mostly Cloudy,70,2012-02-01 17:00:00
12:30 AM,78.8,71.6,78,29.86,5.6,ENE,3.5,-,N/A,,Mostly Cloudy,60,2012-02-01 17:30:00
1:00 AM,80,72,70,29.82,6,East,3.5,,,,Scattered Clouds,90,2012-02-01 18:00:00
1:00 AM,78.8,69.8,74,29.83,5.6,ENE,3.5,-,N/A,,Mostly Cloudy,60,2012-02-01 18:00:00
1:30 AM,78.8,71.6,78,29.83,5.6,Variable,2.3,-,N/A,,Mostly Cloudy,0,2012-02-01 18:30:00
2:00 AM,78.8,71.6,78,29.83,5.6,Calm,Calm,-,N/A,,Mostly Cloudy,0,2012-02-01 19:00:00
2:30 AM,78.8,71.6,78,29.80,5.0,Calm,Calm,-,N/A,,Mostly Cloudy,0,2012-02-01 19:30:00
3:00 AM,80.6,71.6,74,29.80,5.0,East,9.2,-,N/A,,Mostly Cloudy,100,2012-02-01 20:00:00
3:30 AM,78.8,71.6,78,29.80,5.0,NE,3.5,-,N/A,,Mostly Cloudy,40,2012-02-01 20:30:00
4:00 AM,78.8,71.6,78,29.80,5.0,NE,3.5,-,N/A,,Mostly Cloudy,50,2012-02-01 21:00:00
4:30 AM,78.8,71.6,78,29.80,5.0,Variable,1.2,-,N/A,,Mostly Cloudy,0,2012-02-01 21:30:00
5:00 AM,77.0,71.6,83,29.80,-9999.0,North,-9999.0,-,N/A,,Mostly Cloudy,0,2012-02-01 22:00:00
5:30 AM,75.2,71.6,89,29.80,5.0,East,4.6,-,N/A,,Mostly Cloudy,90,2012-02-01 22:30:00
7:00 AM,76,74,91,29.84,6,ESE,4.6,,,,Mist,110,2012-02-02 00:00:00
7:00 AM,75.2,71.6,89,29.86,5.6,Calm,Calm,-,N/A,,Mostly Cloudy,0,2012-02-02 00:00:00
7:30 AM,77.0,73.4,89,29.86,5.6,East,5.8,-,N/A,,Mostly Cloudy,80,2012-02-02 00:30:00
8:00 AM,78.8,73.4,83,29.86,5.6,East,4.6,-,N/A,,Mostly Cloudy,90,2012-02-02 01:00:00
8:30 AM,82.4,71.6,70,29.89,5.6,East,11.5,-,N/A,,Mostly Cloudy,80,2012-02-02 01:30:00
9:00 AM,84.2,73.4,70,29.89,5.6,East,16.1,-,N/A,,Mostly Cloudy,90,2012-02-02 02:00:00
9:30 AM,84.2,71.6,66,29.89,5.6,East,11.5,-,N/A,,Mostly Cloudy,80,2012-02-02 02:30:00
10:00 AM,86.0,71.6,62,29.89,5.6,East,13.8,-,N/A,,Mostly Cloudy,80,2012-02-02 03:00:00
10:30 AM,86.0,73.4,66,29.89,5.6,East,13.8,-,N/A,,Mostly Cloudy,80,2012-02-02 03:30:00
11:00 AM,86.0,73.4,66,29.89,6.2,East,20.7,-,N/A,,Mostly Cloudy,90,2012-02-02 04:00:00
11:30 AM,86.0,71.6,62,29.86,6.2,East,20.7,-,N/A,,Mostly Cloudy,80,2012-02-02 04:30:00
12:00 PM,87.8,73.4,62,29.86,6.2,East,16.1,-,N/A,,Mostly Cloudy,90,2012-02-02 05:00:00
12:30 PM,87.8,73.4,62,29.86,6.2,East,21.9,-,N/A,,Mostly Cloudy,80,2012-02-02 05:30:00
1:00 PM,89,73,51,29.85,6,East,17.3,,,,Scattered Clouds,80,2012-02-02 06:00:00
1:00 PM,87.8,71.6,58,29.83,6.2,East,11.5,-,N/A,,Mostly Cloudy,80,2012-02-02 06:00:00
1:30 PM,89.6,73.4,59,29.83,6.2,East,15.0,-,N/A,,Mostly Cloudy,80,2012-02-02 06:30:00
2:00 PM,89.6,73.4,59,29.80,6.2,East,11.5,-,N/A,,Mostly Cloudy,100,2012-02-02 07:00:00
2:30 PM,89.6,73.4,59,29.80,6.2,East,13.8,-,N/A,,Mostly Cloudy,80,2012-02-02 07:30:00
3:00 PM,89.6,71.6,55,29.80,6.2,ENE,11.5,-,N/A,,Mostly Cloudy,60,2012-02-02 08:00:00
3:30 PM,87.8,71.6,58,29.77,6.2,East,6.9,-,N/A,,Mostly Cloudy,90,2012-02-02 08:30:00
4:00 PM,89.6,73.4,59,29.77,6.2,ENE,13.8,-,N/A,,Mostly Cloudy,70,2012-02-02 09:00:00
4:30 PM,77.0,71.6,83,29.80,4.3,East,5.8,-,N/A,Rain,Light Rain,100,2012-02-02 09:30:00
5:00 PM,80.6,77.0,89,29.80,4.3,ENE,4.6,-,N/A,,Mostly Cloudy,60,2012-02-02 10:00:00
5:30 PM,82.4,75.2,79,29.80,5.0,Calm,Calm,-,N/A,,Mostly Cloudy,0,2012-02-02 10:30:00
6:00 PM,82.4,75.2,79,29.80,5.0,North,5.8,-,N/A,,Mostly Cloudy,350,2012-02-02 11:00:00
6:30 PM,80.6,75.2,84,29.80,5.0,Calm,Calm,-,N/A,,Mostly Cloudy,0,2012-02-02 11:30:00
7:00 PM,81,77,85,29.79,6,Calm,Calm,,,,Scattered Clouds,,2012-02-02 12:00:00
7:00 PM,78.8,75.2,89,29.83,5.0,Calm,Calm,-,N/A,,Mostly Cloudy,0,2012-02-02 12:00:00
7:30 PM,78.8,75.2,89,29.86,5.0,Calm,Calm,-,N/A,,Mostly Cloudy,0,2012-02-02 12:30:00
8:00 PM,78.8,73.4,83,29.86,5.0,Calm,Calm,-,N/A,,Mostly Cloudy,0,2012-02-02 13:00:00
8:30 PM,78.8,73.4,83,29.86,4.3,Calm,Calm,-,N/A,,Mostly Cloudy,0,2012-02-02 13:30:00
9:00 PM,78.8,75.2,89,29.89,4.3,Calm,Calm,-,N/A,,Mostly Cloudy,0,2012-02-02 14:00:00
9:30 PM,78.8,73.4,83,29.89,4.3,Calm,Calm,-,N/A,,Mostly Cloudy,0,2012-02-02 14:30:00
10:00 PM,78.8,75.2,89,29.92,4.3,Calm,Calm,-,N/A,,Mostly Cloudy,0,2012-02-02 15:00:00
10:30 PM,77.0,73.4,89,29.92,4.3,Calm,Calm,-,N/A,,Mostly Cloudy,0,2012-02-02 15:30:00
11:00 PM,77.0,77.0,100,29.92,4.3,Calm,Calm,-,N/A,,Mostly Cloudy,0,2012-02-02 16:00:00
11:30 PM,77.0,77.0,100,29.92,4.3,Calm,Calm,-,N/A,,Mostly Cloudy,0,2012-02-02 16:30:00